SCP
0 0 0 0 0 0 0 0 0 0 0 0 0 0 0 0 0 0 0 0 0 0 0 0 0 0 0 0 0 0 0 0 0 0 0 0 0 0 0 0 0 0 0
0 0 0 0 0 0 0 0 0 0 0 0 0 0 0 0 0 0 0 0 0 0 0 0 0 0 0 0 0 0 0 0 0 0 0 0 0 0 0 0 0 0 0
-0 0 0 0 0 0 0 0 0 0 0 0 0 0 0 0 0 0 0 0 0 0 0 0 0 0 0 0 0 0 0 0 0 0 0 0 0 0 0 0 0 0 0
-0 0 0 0 0 0 0 0 0 0 0 0 0 0 0 0 0 0 0 0 0 0 0 0 0 0 0 0 0 0 0 0 0 0 0 0 0 0 0 0 0 0 0
0 -0 0 0 0 0 0 0 0 0 0 0 0 0 0 0 0 0 0 0 0 0 0 0 0 0 0 0 0 0 0 0 0 0 0 0 0 0 0 0 0 0 0
0 0 0 0 0 0 0 0 0 0 0 0 0 0 0 0 0 0 0 0 0 0 0 0 0 0 0 0 0 0 0 0 0 0 0 0 0 0 0 0 0 0 0
0 0 0 0 0 0 0 0 0 0 0 0 0 0 0 0 0 0 0 0 0 0 0 0 0 0 0 0 0 0 0 0 0 0 0 0 0 0 0 0 0 0 0
0 0 0 0 0 0 0 0 0 0 0 0 0 0 0 0 0 0 0 0 0 0 0 0 0 0 0 0 0 0 0 0 0 0 0 0 0 0 0 0 0 0 0
0 0 0 0 0 0 0 0 0 0 0 0 0 0 0 0 0 0 0 0 0 0 0 0 0 0 0 0 0 0 0 0 0 0 0 0 0 0 0 0 0 0 0
0 0 0 0 -0 0 0 0 0 0 0 0 0 0 0 0 0 0 0 0 0 0 0 0 0 0 0 0 0 0 0 0 0 0 0 0 0 0 0 0 0 0 0
0 0 0 0 0 0 0 0 0 0 0 0 0 0 0 0 0 0 0 0 0 0 0 0 0 0 0 0 0 0 0 0 0 0 0 0 0 0 0 0 0 0 0
0 0 0 0 0 0 0 0 0 0 0 0 0 0 0 0 0 0 0 0 0 0 0 0 0 0 0 0 0 0 0 0 0 0 0 0 0 0 0 0 0 0 0
0 0 0 0 0 0 0 0 0 0 0 0 0 0 0 0 0 0 0 0 0 0 0 0 0 0 0 0 0 0 0 0 0 0 0 0 0 0 0 0 0 0 0
0 0 0 0 -0 0 0 0 0 0 0 0 0 0 0 0 0 0 0 0 0 0 0 0 0 0 0 0 0 0 0 0 0 0 0 0 0 0 0 0 0 0 0
0 0 0 -0 0 0 0 0 0 0 0 0 0 0 0 0 0 0 0 0 0 0 0 0 0 0 0 0 0 0 0 0 -0 -0 0 -0 -0 -0 -0 -0 0 0 0
0 0 -0 0 0 0 -0 0 0 0 0 0 0 0 0 0 0 0 0 0 0 0 0 0 0 0 0 0 0 0 0 -0 -0 0 0 -0 -0 -0 -0 -0 -0 0 0
0 0 0 -0 -0 -0 -0 -0 -0 -0 0 0 0 0 0 0 0 -0 0 0 0 0 0 0 0 0 0 0 0 0 0 0 0 0 -0 -0 -0 -0 -0 -0 -0 -0 0
0 0 0 0 0 0 0 0 0 0 0 0 0 0 0 0 -0 -0 0 0 0 0 0 0 0 0 0 0 -0 0 0 0 0 -0 -0 -0 -0 -0 -0 -0 -0 -0 0
0 0 0 -0 0 0 0 0 0 0 0 -0 -0 -0 -0 -0 -0 -0 -0 0 0 0 0 0 0 0 0 0 0 0 0 0 0 -0 -0 -0 -0 -0 -0 -0 -0 -0 -0
0 0 0 0 0 0 0 0 0 0 0 -0 -0 -0 -0 -0 -0 -0 -0 0 0 0 0 0 0 0 0 0 0 0 0 0 0 0 0 0 0 -0 -0 -0 -0 -0 -0
0 0 0 0 0 0 0 0 0 0 -0 0 0 0 0 0 0 0 0 0 0 0 0 0 0 0 0 0 0 0 0 0 0 0 0 0 0 0 0 0 -0 -0 0
0 0 0 0 0 0 0 0 0 0 0 0 0 0 0 0 0 0 0 0 0 0 0 0 0 0 0 0 0 0 0 0 0 0 0 0 0 0 0 0 0 0 0
0 0 0 0 0 0 0 0 0 0 0 0 0 0 0 0 0 0 0 0 0 0 0 0 0 0 0 0 0 0 0 0 0 0 0 0 0 0 0 0 0 0 0
0 0 0 0 0 0 0 0 0 0 0 0 0 0 0 0 0 0 0 0 0 0 0 0 0 0 0 0 0 0 0 0 0 0 0 0 0 0 0 0 -0 0 0
0 0 0 0 0 0 0 0 0 0 0 0 0 0 0 0 0 0 0 0 0 0 0 0 0 0 0 0 0 0 0 0 0 0 0 0 0 0 0 0 0 0 0
0 0 0 0 0 0 0 0 0 0 0 0 0 0 0 0 0 0 0 0 0 0 0 0 0 0 0 0 -0 0 0 0 0 0 0 0 0 0 0 0 0 0 0
Wind_Speed_500mb
28 29 27 24 22 29 33 33 23 26 33 38 37 37 32 40 35 19 18 18 18 20 18 11 5 6 11 16 21 25 24 20 18 15 10 11 13 14 13 12 14 15 12
19 24 25 21 21 24 26 30 36 39 43 45 47 48 50 44 37 25 20 23 18 26 13 9 5 9 17 19 21 29 29 20 17 12 15 18 20 20 20 20 20 20 23
36 31 19 13 15 14 15 20 25 30 36 40 39 33 33 35 38 32 28 21 19 20 8 7 8 9 12 14 18 26 17 17 17 14 18 17 18 17 19 22 24 26 27
37 28 28 23 25 27 27 23 20 22 28 34 37 33 31 24 25 26 25 20 16 13 13 13 11 11 9 18 17 18 20 20 14 14 15 15 17 18 18 21 24 28 31
25 32 40 31 37 35 31 23 18 21 23 22 23 26 24 23 23 25 11 14 16 15 12 10 8 11 17 18 18 16 18 17 15 15 16 18 22 24 26 30 37 38 40
23 31 34 38 35 32 28 27 30 25 24 19 18 16 15 17 22 18 18 21 15 9 7 11 12 20 20 20 15 15 18 17 18 20 21 21 24 25 26 29 33 29 31
22 26 32 29 31 33 28 24 29 31 27 24 22 7 5 5 13 15 22 21 15 12 12 10 17 19 16 14 19 16 15 17 17 26 26 30 31 24 25 27 25 25 23
25 28 27 28 33 28 26 23 25 28 28 21 17 8 1 6 14 24 21 17 12 12 13 13 14 17 15 18 24 25 26 27 31 33 32 38 35 25 25 32 32 32 28
26 27 30 33 30 22 23 19 18 18 19 15 15 15 5 6 18 18 19 18 14 17 14 11 17 17 19 20 21 25 28 31 35 34 36 39 36 28 28 31 35 33 32
23 27 33 32 23 28 21 16 11 11 14 10 18 15 20 9 4 8 16 17 18 17 13 11 18 20 20 23 26 26 27 32 36 36 36 34 26 25 26 29 33 38 28
25 27 26 26 21 15 15 11 10 7 7 7 7 8 11 16 10 13 12 16 19 18 17 17 21 18 20 22 25 36 40 33 32 32 29 31 25 24 23 18 24 27 19
22 18 16 14 9 8 10 9 8 7 6 10 10 8 11 18 20 16 13 11 10 10 14 15 15 17 21 26 31 35 39 32 31 30 28 24 20 20 21 19 17 17 17
15 9 7 6 9 9 14 14 8 5 4 9 12 15 13 15 15 13 10 11 8 8 11 17 17 23 28 30 31 34 32 40 32 29 23 15 15 17 19 16 16 16 17
12 19 13 10 12 15 14 17 14 10 8 11 17 16 16 16 12 7 8 12 12 5 12 17 20 25 25 30 33 28 34 32 26 7 2 9 10 11 10 10 13 17 21
21 18 18 16 18 18 27 29 25 21 14 19 22 23 16 13 10 9 7 6 5 6 13 21 20 23 28 29 25 28 27 9 9 12 11 7 7 9 9 11 15 21 25
22 19 22 18 17 14 21 23 27 27 21 18 19 14 10 10 9 7 2 3 7 12 11 18 23 27 26 27 22 18 5 11 6 5 4 2 4 9 13 16 20 24 28
17 12 15 15 14 13 15 19 22 23 23 24 21 16 15 11 9 6 6 6 8 9 14 19 16 18 22 11 0 2 1 3 6 7 14 11 10 18 21 22 23 26 30
12 12 13 14 13 7 9 10 12 17 18 21 15 9 8 9 8 7 6 4 6 10 4 9 12 10 8 15 16 11 9 14 14 13 15 10 10 13 13 16 21 24 29
13 11 12 14 18 8 8 8 7 8 10 9 11 7 7 8 9 5 5 3 9 9 7 9 12 13 8 8 9 10 12 15 13 8 3 5 7 7 9 14 17 21 23
16 16 16 15 16 13 10 9 9 7 5 6 10 10 8 7 10 12 11 9 7 7 7 10 9 7 8 9 12 18 18 19 12 5 5 7 6 7 7 8 12 14 15
17 18 18 16 15 11 10 9 9 8 7 9 15 21 21 20 17 13 12 10 5 9 13 11 11 12 13 15 16 13 21 20 12 5 6 8 5 9 7 10 10 12 10
33 31 28 24 22 18 15 10 6 3 5 16 19 25 26 25 23 23 25 25 21 18 18 17 16 15 14 18 20 19 19 18 15 14 17 8 13 10 18 17 11 12 10
27 31 32 34 36 37 35 32 29 29 26 28 27 29 28 27 24 20 19 18 17 15 16 15 15 14 13 18 22 22 17 15 17 18 20 19 12 15 22 23 10 12 17
32 31 37 38 40 42 39 38 39 35 36 33 28 25 23 19 14 15 17 17 16 15 18 18 17 14 16 20 25 26 20 14 17 18 21 25 23 27 26 8 12 15 20
37 38 37 33 32 31 30 29 30 30 29 26 23 21 19 18 18 18 17 19 19 26 19 20 22 20 18 25 23 20 18 25 24 26 26 22 24 25 21 9 12 11 28
33 33 30 27 27 28 29 26 21 24 23 21 20 18 18 19 20 22 22 24 25 26 26 13 10 18 16 18 10 16 25 31 25 32 24 24 25 20 16 19 23 17 11
Wind_Direction_500mb
288 291 290 285 267 261 277 287 267 235 231 238 247 248 263 269 268 254 271 300 299 320 321 340 14 341 356 345 340 340 326 319 321 315 301 290 289 279 280 296 280 270 284
348 329 312 304 289 281 270 265 265 262 261 262 264 266 268 264 254 252 251 272 289 305 283 302 299 306 335 326 329 331 330 322 318 302 280 281 292 294 296 298 298 284 280
344 342 328 331 317 309 290 278 273 274 270 266 266 268 263 264 249 239 248 248 270 280 260 252 259 287 308 316 318 326 323 333 311 295 282 293 294 291 296 298 301 303 299
326 338 349 325 332 324 308 306 303 302 294 280 270 268 260 247 238 237 243 239 249 251 266 256 265 294 319 318 315 316 310 311 304 286 289 307 312 313 309 308 305 301 298
319 331 328 317 312 309 304 312 307 312 311 298 272 254 250 251 224 235 217 196 236 270 253 266 306 304 318 323 313 310 308 312 306 296 292 296 298 299 302 302 300 298 296
304 314 307 307 305 300 297 295 299 311 316 324 304 268 238 235 236 226 220 203 229 258 264 288 315 326 320 322 318 313 315 318 317 314 311 300 294 293 295 300 302 303 304
305 308 311 312 320 312 302 302 299 297 302 313 301 293 228 241 210 195 187 211 253 255 279 298 318 317 311 315 323 305 302 306 311 311 310 308 305 305 306 301 303 311 294
301 297 308 316 323 323 310 304 299 294 290 305 277 277 105 167 184 175 189 215 265 280 275 283 294 301 301 324 323 319 321 315 306 295 290 292 298 303 301 299 307 309 297
306 293 299 316 320 323 320 320 308 281 280 290 248 201 182 154 151 164 173 196 222 245 252 278 273 289 297 301 310 313 321 313 304 295 294 298 298 293 289 289 292 297 303
302 288 302 312 318 309 319 322 312 266 264 267 221 207 217 208 163 177 201 214 233 225 240 245 263 273 275 293 299 307 307 304 300 299 299 300 297 282 282 282 287 288 286
291 291 314 319 318 314 317 318 308 282 249 219 209 257 234 214 240 241 219 212 219 237 262 251 279 285 287 288 303 312 311 312 304 299 293 295 291 292 295 296 293 290 284
294 304 316 327 350 10 356 331 320 315 259 204 196 203 205 191 213 212 218 217 227 243 252 257 269 281 291 300 304 308 310 311 309 304 304 297 299 305 308 302 301 315 331
348 321 338 48 48 13 4 344 322 259 181 191 178 178 185 185 183 179 185 191 167 195 230 250 267 288 295 304 310 313 312 307 296 305 301 304 307 317 322 319 318 330 337
27 43 53 57 64 54 31 46 58 90 128 135 152 148 142 138 142 161 183 182 180 179 239 260 273 284 306 313 314 314 314 312 308 326 16 314 343 3 8 1 360 6 8
58 51 56 52 67 64 77 76 80 76 94 117 131 131 127 110 118 140 163 187 218 271 270 276 291 308 307 307 310 308 318 347 100 98 75 42 47 44 20 347 355 3 3
70 53 64 62 52 74 77 77 77 78 89 113 134 132 133 121 116 118 97 295 302 309 287 308 310 308 313 305 298 306 273 134 142 145 135 92 320 318 324 330 345 354 356
64 50 50 47 63 67 80 67 72 72 87 99 115 112 104 77 47 33 340 314 307 293 298 308 333 333 340 325 321 299 348 279 270 280 290 290 303 310 315 322 332 340 343
45 53 50 42 37 34 91 97 72 72 64 64 78 52 64 52 18 357 1 332 300 304 347 13 5 25 36 63 71 44 347 321 317 308 301 310 319 313 306 311 325 334 337
45 36 37 43 30 55 109 134 115 83 58 42 20 21 8 339 330 341 334 35 98 82 24 24 46 61 56 31 17 7 344 333 327 331 358 0 350 311 307 322 334 336 344
46 34 32 25 37 88 100 104 128 119 130 76 30 14 28 49 77 74 70 108 120 36 35 42 43 18 13 12 7 6 5 352 326 303 356 347 313 317 323 2 358 345 355
45 33 28 40 53 80 108 108 111 111 87 68 69 73 74 73 79 86 89 89 78 66 52 43 40 38 35 21 13 3 1 353 1 305 351 336 313 357 315 297 343 0 27
52 53 56 58 65 77 81 90 119 127 86 86 84 82 85 76 73 76 81 77 77 72 61 46 29 16 14 2 359 352 347 0 0 346 330 330 313 347 334 309 300 300 323
51 59 65 73 70 74 72 73 77 87 88 98 92 88 83 85 86 77 73 66 50 43 39 26 19 4 9 352 348 349 342 340 335 341 322 348 318 312 344 327 302 291 285
73 72 71 71 74 72 70 76 82 85 91 95 91 83 78 72 70 62 54 40 40 24 2 359 11 3 340 332 328 328 332 337 1 343 323 311 331 333 334 330 282 287 341
81 79 76 75 69 71 69 72 83 89 89 88 79 67 63 59 54 48 48 53 35 23 11 334 348 319 301 311 298 317 325 313 322 325 337 304 331 330 345 2 5 340 266
73 73 73 73 72 69 60 56 66 75 73 64 55 43 34 37 28 18 18 33 36 27 27 41 307 314 334 355 350 348 330 322 325 334 343 319 320 331 335 352 343 302 300
Wind_Speed_850mb
28 29 27 24 22 29 33 33 23 26 33 38 37 37 32 40 35 19 18 18 18 20 18 11 5 6 11 16 21 25 24 20 18 15 10 11 13 14 13 12 14 15 12
19 24 25 21 21 24 26 30 36 39 43 45 47 48 50 44 37 25 20 23 18 26 13 9 5 9 17 19 21 29 29 20 17 12 15 18 20 20 20 20 20 20 23
36 31 19 13 15 14 15 20 25 30 36 40 39 33 33 35 38 32 28 21 19 20 8 7 8 9 12 14 18 26 17 17 17 14 18 17 18 17 19 22 24 26 27
37 28 28 23 25 27 27 23 20 22 28 34 37 33 31 24 25 26 25 20 16 13 13 13 11 11 9 18 17 18 20 20 14 14 15 15 17 18 18 21 24 28 31
25 32 40 31 37 35 31 23 18 21 23 22 23 26 24 23 23 25 11 14 16 15 12 10 8 11 17 18 18 16 18 17 15 15 16 18 22 24 26 30 37 38 40
23 31 34 38 35 32 28 27 30 25 24 19 18 16 15 17 22 18 18 21 15 9 7 11 12 20 20 20 15 15 18 17 18 20 21 21 24 25 26 29 33 29 31
22 26 32 29 31 33 28 24 29 31 27 24 22 7 5 5 13 15 22 21 15 12 12 10 17 19 16 14 19 16 15 17 17 26 26 30 31 24 25 27 25 25 23
25 28 27 28 33 28 26 23 25 28 28 21 17 8 1 6 14 24 21 17 12 12 13 13 14 17 15 18 24 25 26 27 31 33 32 38 35 25 25 32 32 32 28
26 27 30 33 30 22 23 19 18 18 19 15 15 15 5 6 18 18 19 18 14 17 14 11 17 17 19 20 21 25 28 31 35 34 36 39 36 28 28 31 35 33 32
23 27 33 32 23 28 21 16 11 11 14 10 18 15 20 9 4 8 16 17 18 17 13 11 18 20 20 23 26 26 27 32 36 36 36 34 26 25 26 29 33 38 28
25 27 26 26 21 15 15 11 10 7 7 7 7 8 11 16 10 13 12 16 19 18 17 17 21 18 20 22 25 36 40 33 32 32 29 31 25 24 23 18 24 27 19
22 18 16 14 9 8 10 9 8 7 6 10 10 8 11 18 20 16 13 11 10 10 14 15 15 17 21 26 31 35 39 32 31 30 28 24 20 20 21 19 17 17 17
15 9 7 6 9 9 14 14 8 5 4 9 12 15 13 15 15 13 10 11 8 8 11 17 17 23 28 30 31 34 32 40 32 29 23 15 15 17 19 16 16 16 17
12 19 13 10 12 15 14 17 14 10 8 11 17 16 16 16 12 7 8 12 12 5 12 17 20 25 25 30 33 28 34 32 26 7 2 9 10 11 10 10 13 17 21
21 18 18 16 18 18 27 29 25 21 14 19 22 23 16 13 10 9 7 6 5 6 13 21 20 23 28 29 25 28 27 9 9 12 11 7 7 9 9 11 15 21 25
22 19 22 18 17 14 21 23 27 27 21 18 19 14 10 10 9 7 2 3 7 12 11 18 23 27 26 27 22 18 5 11 6 5 4 2 4 9 13 16 20 24 28
17 12 15 15 14 13 15 19 22 23 23 24 21 16 15 11 9 6 6 6 8 9 14 19 16 18 22 11 0 2 1 3 6 7 14 11 10 18 21 22 23 26 30
12 12 13 14 13 7 9 10 12 17 18 21 15 9 8 9 8 7 6 4 6 10 4 9 12 10 8 15 16 11 9 14 14 13 15 10 10 13 13 16 21 24 29
13 11 12 14 18 8 8 8 7 8 10 9 11 7 7 8 9 5 5 3 9 9 7 9 12 13 8 8 9 10 12 15 13 8 3 5 7 7 9 14 17 21 23
16 16 16 15 16 13 10 9 9 7 5 6 10 10 8 7 10 12 11 9 7 7 7 10 9 7 8 9 12 18 18 19 12 5 5 7 6 7 7 8 12 14 15
17 18 18 16 15 11 10 9 9 8 7 9 15 21 21 20 17 13 12 10 5 9 13 11 11 12 13 15 16 13 21 20 12 5 6 8 5 9 7 10 10 12 10
33 31 28 24 22 18 15 10 6 3 5 16 19 25 26 25 23 23 25 25 21 18 18 17 16 15 14 18 20 19 19 18 15 14 17 8 13 10 18 17 11 12 10
27 31 32 34 36 37 35 32 29 29 26 28 27 29 28 27 24 20 19 18 17 15 16 15 15 14 13 18 22 22 17 15 17 18 20 19 12 15 22 23 10 12 17
32 31 37 38 40 42 39 38 39 35 36 33 28 25 23 19 14 15 17 17 16 15 18 18 17 14 16 20 25 26 20 14 17 18 21 25 23 27 26 8 12 15 20
37 38 37 33 32 31 30 29 30 30 29 26 23 21 19 18 18 18 17 19 19 26 19 20 22 20 18 25 23 20 18 25 24 26 26 22 24 25 21 9 12 11 28
33 33 30 27 27 28 29 26 21 24 23 21 20 18 18 19 20 22 22 24 25 26 26 13 10 18 16 18 10 16 25 31 25 32 24 24 25 20 16 19 23 17 11
Wind_Direction_850mb
288 291 290 285 267 261 277 287 267 235 231 238 247 248 263 269 268 254 271 300 299 320 321 340 14 341 356 345 340 340 326 319 321 315 301 290 289 279 280 296 280 270 284
348 329 312 304 289 281 270 265 265 262 261 262 264 266 268 264 254 252 251 272 289 305 283 302 299 306 335 326 329 331 330 322 318 302 280 281 292 294 296 298 298 284 280
344 342 328 331 317 309 290 278 273 274 270 266 266 268 263 264 249 239 248 248 270 280 260 252 259 287 308 316 318 326 323 333 311 295 282 293 294 291 296 298 301 303 299
326 338 349 325 332 324 308 306 303 302 294 280 270 268 260 247 238 237 243 239 249 251 266 256 265 294 319 318 315 316 310 311 304 286 289 307 312 313 309 308 305 301 298
319 331 328 317 312 309 304 312 307 312 311 298 272 254 250 251 224 235 217 196 236 270 253 266 306 304 318 323 313 310 308 312 306 296 292 296 298 299 302 302 300 298 296
304 314 307 307 305 300 297 295 299 311 316 324 304 268 238 235 236 226 220 203 229 258 264 288 315 326 320 322 318 313 315 318 317 314 311 300 294 293 295 300 302 303 304
305 308 311 312 320 312 302 302 299 297 302 313 301 293 228 241 210 195 187 211 253 255 279 298 318 317 311 315 323 305 302 306 311 311 310 308 305 305 306 301 303 311 294
301 297 308 316 323 323 310 304 299 294 290 305 277 277 105 167 184 175 189 215 265 280 275 283 294 301 301 324 323 319 321 315 306 295 290 292 298 303 301 299 307 309 297
306 293 299 316 320 323 320 320 308 281 280 290 248 201 182 154 151 164 173 196 222 245 252 278 273 289 297 301 310 313 321 313 304 295 294 298 298 293 289 289 292 297 303
302 288 302 312 318 309 319 322 312 266 264 267 221 207 217 208 163 177 201 214 233 225 240 245 263 273 275 293 299 307 307 304 300 299 299 300 297 282 282 282 287 288 286
291 291 314 319 318 314 317 318 308 282 249 219 209 257 234 214 240 241 219 212 219 237 262 251 279 285 287 288 303 312 311 312 304 299 293 295 291 292 295 296 293 290 284
294 304 316 327 350 10 356 331 320 315 259 204 196 203 205 191 213 212 218 217 227 243 252 257 269 281 291 300 304 308 310 311 309 304 304 297 299 305 308 302 301 315 331
348 321 338 48 48 13 4 344 322 259 181 191 178 178 185 185 183 179 185 191 167 195 230 250 267 288 295 304 310 313 312 307 296 305 301 304 307 317 322 319 318 330 337
27 43 53 57 64 54 31 46 58 90 128 135 152 148 142 138 142 161 183 182 180 179 239 260 273 284 306 313 314 314 314 312 308 326 16 314 343 3 8 1 360 6 8
58 51 56 52 67 64 77 76 80 76 94 117 131 131 127 110 118 140 163 187 218 271 270 276 291 308 307 307 310 308 318 347 100 98 75 42 47 44 20 347 355 3 3
70 53 64 62 52 74 77 77 77 78 89 113 134 132 133 121 116 118 97 295 302 309 287 308 310 308 313 305 298 306 273 134 142 145 135 92 320 318 324 330 345 354 356
64 50 50 47 63 67 80 67 72 72 87 99 115 112 104 77 47 33 340 314 307 293 298 308 333 333 340 325 321 299 348 279 270 280 290 290 303 310 315 322 332 340 343
45 53 50 42 37 34 91 97 72 72 64 64 78 52 64 52 18 357 1 332 300 304 347 13 5 25 36 63 71 44 347 321 317 308 301 310 319 313 306 311 325 334 337
45 36 37 43 30 55 109 134 115 83 58 42 20 21 8 339 330 341 334 35 98 82 24 24 46 61 56 31 17 7 344 333 327 331 358 0 350 311 307 322 334 336 344
46 34 32 25 37 88 100 104 128 119 130 76 30 14 28 49 77 74 70 108 120 36 35 42 43 18 13 12 7 6 5 352 326 303 356 347 313 317 323 2 358 345 355
45 33 28 40 53 80 108 108 111 111 87 68 69 73 74 73 79 86 89 89 78 66 52 43 40 38 35 21 13 3 1 353 1 305 351 336 313 357 315 297 343 0 27
52 53 56 58 65 77 81 90 119 127 86 86 84 82 85 76 73 76 81 77 77 72 61 46 29 16 14 2 359 352 347 0 0 346 330 330 313 347 334 309 300 300 323
51 59 65 73 70 74 72 73 77 87 88 98 92 88 83 85 86 77 73 66 50 43 39 26 19 4 9 352 348 349 342 340 335 341 322 348 318 312 344 327 302 291 285
73 72 71 71 74 72 70 76 82 85 91 95 91 83 78 72 70 62 54 40 40 24 2 359 11 3 340 332 328 328 332 337 1 343 323 311 331 333 334 330 282 287 341
81 79 76 75 69 71 69 72 83 89 89 88 79 67 63 59 54 48 48 53 35 23 11 334 348 319 301 311 298 317 325 313 322 325 337 304 331 330 345 2 5 340 266
73 73 73 73 72 69 60 56 66 75 73 64 55 43 34 37 28 18 18 33 36 27 27 41 307 314 334 355 350 348 330 322 325 334 343 319 320 331 335 352 343 302 300